Weather History for St. George, AK

Change the Weather History Date:

Friday, November 16, 2012

  Actual Average Record
Temperature  
Mean Temperature 34 °F -  
Max Temperature 37 °F 36 °F 39 °F (1996)
Min Temperature 30 °F 30 °F 21 °F (1999)
Degree Days  
Heating Degree Days 32    
Moisture  
Dew Point 30 °F    
Average Humidity 87    
Maximum Humidity 100    
Minimum Humidity 69    
Precipitation  
Precipitation 0.20 in - - ()
Sea Level Pressure  
Sea Level Pressure 29.64 in    
Wind  
Wind Speed 22 mph (ESE)    
Max Wind Speed 40 mph    
Max Gust Speed 50 mph    
Visibility 5 miles    
Events Rain , Snow    
Averages and records for this station are not official NWS values.
T = Trace of Precipitation, MM = Missing Value Source: NWS Daily Summary

Daily Weather History Graph

Daily Weather History Graph

Search for Another Location

Airport:

Trip Planner

Search our weather history database for the weather conditions in past years. The results will help you decide how hot, cold, wet, or windy it might be!

Date:

Astronomy

Nov. 16, 2012 Rise Set
Actual Time 10:01 AM AKST 6:04 PM AKST
Civil Twilight 9:18 AM AKST 6:48 PM AKST
Nautical Twilight 8:31 AM AKST 7:35 PM AKST
Astronomical Twilight 7:46 AM AKST 8:19 PM AKST
Moon 1:17 PM AKST (11/16) 9:13 PM AKST (11/16)
Length of Visible Light 9h 30m
Length of Day
8h 03m
Waxing Crescent, 13% of the Moon is Illuminated
Nov 16
Waxing Crescent
Nov 20
First Quarter
Nov 28
Full
Dec 6
Last Quarter
Dec 12
New

Hourly Weather History & Observations

Time (AKST) Temp. Windchill Dew Point Humidity Pressure Visibility Wind Dir Wind Speed Gust Speed Precip Events Conditions
12:53 AM 30.0 °F 19.5 °F 23.0 °F 75% 30.17 in 10.0 mi East 13.8 mph - N/A   Clear
1:53 AM 30.9 °F 21.2 °F 23.0 °F 72% 30.15 in 10.0 mi East 12.7 mph - N/A   Mostly Cloudy
3:53 AM 32.0 °F 20.8 °F 23.0 °F 69% 30.10 in 10.0 mi East 17.3 mph 24.2 mph N/A   Overcast
4:53 AM 32.0 °F 23.0 °F 24.1 °F 73% 30.09 in 10.0 mi ESE 11.5 mph 20.7 mph N/A   Overcast
5:53 AM 32.0 °F 22.1 °F 25.0 °F 75% 30.03 in 10.0 mi East 13.8 mph - N/A   Overcast
6:53 AM 33.1 °F 22.6 °F 25.0 °F 72% 30.00 in 10.0 mi East 16.1 mph 20.7 mph N/A   Overcast
7:53 AM 33.1 °F 21.2 °F 26.1 °F 75% 29.94 in 10.0 mi ESE 20.7 mph 29.9 mph N/A   Overcast
8:53 AM 34.0 °F 21.3 °F 26.1 °F 73% 29.91 in 10.0 mi ESE 25.3 mph 35.7 mph N/A   Overcast
9:53 AM 34.0 °F 21.3 °F 27.0 °F 75% 29.86 in 10.0 mi ESE 25.3 mph 33.4 mph N/A   Overcast
10:53 AM 34.0 °F 21.3 °F 25.0 °F 70% 29.81 in 10.0 mi ESE 25.3 mph 38.0 mph N/A   Overcast
11:53 AM 35.1 °F 21.2 °F 26.1 °F 70% 29.75 in 10.0 mi ESE 33.4 mph 41.4 mph N/A   Overcast
12:41 PM 33.8 °F 19.9 °F 28.4 °F 81% 29.74 in 1.8 mi ESE 31.1 mph 42.6 mph 0.00 in Snow Light Snow
12:49 PM 33.8 °F 19.2 °F 28.4 °F 81% 29.72 in 1.2 mi ESE 34.5 mph 41.4 mph 0.00 in Snow Light Snow
12:53 PM 34.0 °F 19.7 °F 28.9 °F 82% 29.68 in 1.2 mi ESE 33.4 mph 41.4 mph 0.00 in Snow Light Snow
1:00 PM 33.8 °F 19.4 °F 28.4 °F 81% 29.69 in 1.5 mi ESE 33.4 mph 46.0 mph 0.01 in Snow Light Snow
1:08 PM 33.8 °F 19.6 °F 30.2 °F 87% 29.68 in 3.0 mi ESE 32.2 mph 46.0 mph 0.01 in Snow Light Snow
1:53 PM 34.0 °F 20.5 °F 30.9 °F 89% 29.62 in 2.5 mi ESE 28.8 mph 44.9 mph 0.05 in Snow Light Snow
2:03 PM 33.8 °F 20.3 °F 30.2 °F 87% 29.66 in 4.0 mi ESE 28.8 mph 47.2 mph 0.00 in Snow Light Snow
2:29 PM 33.8 °F 20.3 °F 30.2 °F 87% 29.64 in 2.5 mi ESE 28.8 mph 40.3 mph 0.00 in Snow Light Snow
2:38 PM 33.8 °F 20.8 °F 30.2 °F 87% 29.63 in 1.0 mi ESE 26.5 mph 39.1 mph 0.00 in Snow Light Snow
2:47 PM 33.8 °F 20.1 °F 30.2 °F 87% 29.64 in 0.8 mi ESE 29.9 mph 40.3 mph 0.01 in Snow Light Snow
2:53 PM 33.1 °F 18.7 °F 30.9 °F 92% 29.60 in 0.8 mi ESE 32.2 mph 41.4 mph 0.01 in Snow Light Snow
3:28 PM 33.8 °F 19.9 °F 32.0 °F 93% 29.59 in 1.0 mi ESE 31.1 mph 43.7 mph 0.01 in Snow Light Snow
3:36 PM 33.8 °F 19.6 °F 32.0 °F 93% 29.58 in 1.2 mi ESE 32.2 mph 42.6 mph 0.02 in Snow Light Snow
3:53 PM 33.1 °F 18.7 °F 32.0 °F 96% 29.54 in 1.2 mi ESE 32.2 mph 46.0 mph 0.02 in Snow Light Snow
4:24 PM 33.8 °F 19.2 °F 32.0 °F 93% 29.53 in 1.0 mi ESE 34.5 mph 46.0 mph 0.01 in Snow Light Snow
4:39 PM 33.8 °F 19.6 °F 32.0 °F 93% 29.53 in 1.2 mi ESE 32.2 mph 43.7 mph 0.01 in Snow Light Snow
4:50 PM 33.8 °F 19.4 °F 32.0 °F 93% 29.52 in 2.0 mi ESE 33.4 mph 46.0 mph 0.01 in Snow Light Snow
4:53 PM 33.1 °F 18.0 °F 32.0 °F 96% 29.49 in 2.0 mi ESE 35.7 mph 46.0 mph 0.01 in Snow Light Snow
5:07 PM 33.8 °F 19.4 °F 32.0 °F 93% 29.51 in 1.8 mi ESE 33.4 mph 40.3 mph 0.00 in Snow Light Snow
5:09 PM 33.8 °F 19.0 °F 32.0 °F 93% 29.51 in 1.8 mi ESE 35.7 mph 44.9 mph 0.00 in Snow Light Snow
5:39 PM 33.8 °F 18.3 °F 33.8 °F 100% 29.47 in 1.2 mi ESE 40.3 mph 49.5 mph 0.01 in Snow Light Snow
5:53 PM 34.0 °F 21.3 °F - N/A% 29.45 in 1.5 mi SE 25.3 mph 42.6 mph 0.02 in Snow Light Snow
6:01 PM 33.8 °F 19.4 °F - N/A% 29.49 in 2.0 mi ESE 33.4 mph 48.3 mph 0.00 in Snow Light Snow
6:13 PM 33.8 °F 19.9 °F - N/A% 29.47 in 4.0 mi SE 31.1 mph 42.6 mph 0.01 in Snow Light Snow
6:53 PM 35.1 °F 22.2 °F - N/A% 29.45 in 5.0 mi ESE 27.6 mph 33.4 mph 0.04 in Snow Light Snow
7:18 PM 35.6 °F 24.0 °F - N/A% 29.45 in 7.0 mi ESE 23.0 mph 33.4 mph 0.04 in Rain Light Rain
7:41 PM 35.6 °F 24.5 °F - N/A% 29.46 in 6.0 mi SE 20.7 mph 27.6 mph 0.04 in   Overcast
7:49 PM 35.6 °F 24.8 °F - N/A% 29.46 in 4.0 mi SE 19.6 mph 26.5 mph 0.05 in   Overcast
7:53 PM 36.0 °F 26.3 °F - N/A% 29.42 in 5.0 mi ESE 16.1 mph - 0.05 in   Overcast
8:01 PM 35.6 °F 25.5 °F - N/A% 29.46 in 5.0 mi ESE 17.3 mph - 0.00 in   Overcast
8:53 PM 37.0 °F 34.5 °F 37.0 °F 100% 29.42 in 10.0 mi NE 3.5 mph - 0.00 in   Mostly Cloudy
9:06 PM 35.6 °F 30.7 °F 35.6 °F 100% 29.45 in 10.0 mi North 5.8 mph - N/A   Mostly Cloudy
9:53 PM 36.0 °F - 36.0 °F 100% 29.43 in 10.0 mi Calm Calm - N/A   Overcast
10:53 PM 37.0 °F 34.5 °F 37.0 °F 100% 29.45 in 9.0 mi North 3.5 mph - N/A   Overcast
11:10 PM 35.6 °F - 35.6 °F 100% 29.49 in 9.0 mi Calm Calm - N/A   Overcast
11:36 PM 37.4 °F 31.4 °F 37.4 °F 100% 29.50 in 9.0 mi NE 8.1 mph - N/A   Overcast
11:53 PM 36.0 °F 29.0 °F 36.0 °F 100% 29.47 in 7.0 mi NE 9.2 mph - N/A   Overcast